Wind_Speed
18 19 21 23 27 29 29 28 27 25 24 23 23 21 19 18 20 21 20 18 17 17 17 17 17 17 16 15 14 13 13 13 12 11 13 15 16 17 17 18 20 21 22 23 24 25 26 26 25 25 26 27 27 26 26 26 27 28 27 26 26 23 22 21 12 10 19 26 27 28 29 31 33 32 31 31 31 29 29 28 27 28 27 23 23
20 21 22 23 26 28 28 27 25 24 24 24 23 21 19 20 22 23 21 18 17 17 18 18 17 17 16 16 15 14 13 13 12 11 13 15 17 17 17 19 21 23 23 24 24 25 25 25 24 23 24 26 27 27 27 27 27 27 27 26 26 25 23 22 18 13 16 24 28 29 30 32 33 32 31 31 30 29 29 28 28 29 29 25 23
22 22 23 24 25 26 26 25 24 24 25 25 23 21 20 22 24 23 21 18 17 18 18 18 18 16 17 16 15 14 13 13 12 11 12 14 17 18 18 19 22 23 24 24 24 24 24 24 23 21 22 24 26 26 26 27 27 26 26 26 25 26 25 24 22 18 16 20 26 29 30 31 33 33 31 30 30 29 29 28 28 30 31 28 26
24 24 25 25 26 26 25 25 25 25 26 25 23 22 22 24 25 24 21 19 18 18 18 18 18 17 17 17 16 15 14 13 13 12 12 14 16 18 18 20 22 23 24 23 22 22 22 22 21 20 20 22 24 25 25 26 27 27 26 26 26 26 27 27 25 22 19 21 26 29 29 29 30 32 32 32 32 31 29 29 28 30 32 31 29
25 26 26 26 26 26 25 25 26 27 26 25 23 22 23 24 25 24 22 20 18 19 19 18 18 17 18 18 17 16 14 13 12 12 12 13 16 17 18 20 21 22 22 22 21 21 20 20 20 19 19 20 21 22 23 24 26 27 26 26 27 28 29 29 27 25 24 23 25 27 30 29 29 31 32 32 33 34 33 31 29 29 32 33 31
27 27 27 27 27 26 26 26 27 27 26 24 22 22 23 24 24 23 21 20 20 20 19 18 18 18 18 19 18 16 15 13 12 12 12 14 16 17 17 19 20 21 21 21 20 19 19 18 18 18 18 18 18 19 21 23 24 25 26 26 28 29 30 29 27 27 27 25 25 27 30 31 30 31 32 30 30 33 34 34 34 30 30 34 35
28 28 28 28 27 27 27 27 27 26 25 23 21 21 22 23 22 22 20 20 22 22 20 19 18 18 19 19 18 16 15 14 12 11 12 13 16 17 17 17 18 19 19 19 18 17 17 16 16 16 16 16 16 17 19 21 22 23 24 25 27 29 29 28 27 27 27 27 27 28 29 30 31 31 32 32 31 32 33 31 33 33 30 31 36
29 29 28 28 28 28 27 27 26 25 23 21 20 20 22 22 21 21 21 22 23 23 21 20 19 19 19 19 18 17 16 14 12 12 12 14 15 16 16 16 16 17 17 16 15 15 14 14 13 14 15 14 14 15 17 18 21 22 23 24 26 28 27 26 25 26 27 27 26 26 27 30 31 31 33 35 34 34 33 28 27 29 28 28 33
30 30 29 29 28 28 28 26 25 23 21 20 20 20 21 21 21 22 23 24 25 24 22 21 19 20 20 20 19 18 16 15 13 11 11 13 16 16 16 15 15 15 15 14 13 12 12 11 11 12 13 13 13 14 15 16 18 20 21 23 25 26 25 25 24 25 27 27 25 26 27 29 32 32 33 34 32 29 31 31 28 29 30 29 33
32 31 29 29 29 28 28 26 24 22 21 20 20 20 21 21 22 24 25 26 25 24 22 21 20 20 21 21 20 19 17 14 13 11 10 12 15 17 16 14 14 13 13 13 12 11 11 10 10 10 10 11 12 12 13 14 17 19 19 20 22 23 24 24 24 25 26 26 25 25 26 27 30 31 30 31 30 28 29 30 29 30 32 31 32
32 31 29 29 29 29 28 26 24 23 22 21 20 21 22 23 24 25 26 26 25 24 23 22 21 21 21 21 21 19 17 15 13 12 10 10 13 16 16 14 13 13 13 13 12 11 11 10 9 8 8 10 11 11 12 13 15 17 19 19 20 21 22 23 24 25 26 26 25 25 24 25 29 31 30 30 30 29 28 28 28 28 27 22 20
31 31 30 29 30 29 28 27 25 24 23 22 21 22 23 24 25 26 26 25 24 24 23 23 22 22 22 22 21 19 17 15 14 12 11 10 12 15 16 14 13 13 13 12 12 12 11 10 8 7 7 9 10 10 11 12 13 15 17 18 19 20 21 22 24 25 26 26 25 25 24 24 27 29 30 29 29 29 29 28 27 26 23 19 16
30 31 31 31 31 30 29 28 26 24 23 23 22 24 25 25 26 26 25 24 24 24 24 23 23 22 22 22 21 19 17 16 14 12 11 10 11 15 16 15 13 14 13 13 12 11 10 9 8 7 7 9 9 9 10 10 11 12 14 16 17 18 19 20 21 23 24 25 25 24 23 24 27 28 29 28 28 28 28 27 26 23 22 21 20
31 32 33 32 31 30 30 29 26 24 24 25 25 26 27 26 25 25 24 24 24 24 24 24 23 23 22 21 20 19 17 16 14 12 11 11 12 16 18 16 15 14 14 13 12 11 9 8 8 7 7 9 9 9 9 9 10 10 12 13 14 14 16 17 19 20 21 22 23 22 22 24 25 26 28 29 28 27 25 25 25 22 20 20 21
30 32 33 31 30 30 30 29 26 25 26 27 28 28 27 27 26 25 24 24 24 24 24 24 23 23 22 21 20 19 17 16 14 12 12 13 15 18 18 17 16 15 13 12 11 10 9 7 7 6 7 8 8 8 7 8 9 10 11 11 11 12 13 14 16 17 18 19 19 19 20 21 22 23 25 27 28 27 25 25 25 22 21 21 23
29 30 31 30 29 30 30 28 26 26 27 27 28 28 28 27 26 25 24 24 24 24 24 24 24 23 22 20 19 18 17 15 14 12 13 15 17 19 18 17 16 14 13 11 10 9 8 7 7 6 6 8 8 7 7 7 8 10 10 10 9 9 11 12 13 13 14 15 16 17 17 17 19 20 22 24 27 27 28 29 30 29 27 23 23
29 29 30 30 30 30 30 28 26 26 24 23 22 23 25 25 25 25 24 24 24 25 25 24 23 22 21 19 19 19 18 15 14 14 16 18 19 19 19 17 16 15 14 12 11 10 9 8 7 6 6 7 8 8 7 5 7 9 10 9 9 8 9 10 10 10 12 13 13 14 15 15 16 17 19 21 23 26 29 31 31 31 29 22 19
31 31 31 31 31 30 29 28 27 26 25 24 23 23 24 24 24 24 24 24 25 25 24 24 22 20 19 19 19 19 18 17 16 17 18 19 19 19 19 19 18 17 16 15 12 11 10 9 8 6 6 6 8 9 8 4 4 7 8 8 8 8 8 9 9 8 9 11 12 13 13 14 14 15 17 19 20 23 27 28 27 29 27 22 18
34 33 33 32 30 29 29 29 29 29 31 32 32 29 28 27 25 25 24 24 25 25 24 23 21 20 19 19 19 19 19 19 19 18 19 19 19 19 19 20 20 18 17 15 13 11 10 9 8 7 6 6 8 9 7 3 2 4 5 6 7 7 7 8 8 8 8 9 11 12 13 13 13 13 14 16 18 20 22 23 24 27 26 24 22
35 34 32 29 29 29 30 30 30 30 31 32 31 31 30 28 27 26 25 24 25 25 24 23 22 21 20 19 19 19 20 21 20 19 19 19 18 18 18 19 19 18 16 15 13 12 10 8 8 7 6 6 7 8 7 4 1 2 2 3 5 6 7 8 8 8 8 10 10 11 12 13 13 13 13 14 15 17 19 20 22 24 24 25 25
30 31 29 28 29 30 30 30 29 29 29 30 30 30 30 29 28 27 26 26 26 26 25 24 23 22 21 20 20 20 20 20 20 20 19 18 18 17 16 16 17 17 16 14 13 12 10 8 8 7 6 6 6 6 6 5 3 3 2 1 3 4 6 7 7 6 7 8 9 10 11 12 12 13 13 13 13 14 16 17 18 20 21 23 24
28 29 29 28 28 29 29 28 28 28 29 31 31 31 30 29 29 28 28 28 27 27 27 26 25 24 22 21 21 21 20 20 19 19 19 18 17 16 15 15 16 16 16 15 13 12 11 9 8 7 6 5 5 5 5 5 5 4 3 1 2 3 4 3 4 4 5 6 8 9 10 11 12 14 14 13 12 13 13 14 16 17 18 19 19
28 29 29 28 28 29 29 27 26 29 31 33 33 32 30 30 29 29 29 29 28 28 28 28 27 26 25 24 22 21 21 20 19 18 18 18 17 16 15 15 15 14 15 15 14 12 11 9 8 7 5 5 5 5 5 5 5 4 3 2 3 3 2 1 1 3 4 5 6 8 9 9 11 13 14 14 12 12 12 12 14 15 16 17 17
26 27 28 28 29 30 28 26 26 30 32 32 32 32 31 30 30 29 29 30 29 28 28 28 28 28 27 27 25 23 22 21 20 18 18 17 17 17 16 16 16 14 14 14 13 12 10 8 7 6 5 4 4 5 5 5 5 4 4 3 3 3 3 1 1 2 3 4 5 6 7 8 9 11 13 13 12 12 13 13 13 15 15 15 16
26 27 28 28 29 30 28 27 28 30 32 33 32 32 32 31 30 30 30 30 30 30 28 28 28 28 29 29 28 26 24 23 21 20 18 17 18 18 18 17 16 15 13 12 12 11 10 8 7 6 4 3 3 5 5 5 5 5 4 3 3 3 2 1 0 2 3 3 4 5 5 5 7 8 10 11 10 10 12 13 14 14 15 16 15
25 25 27 28 30 30 30 28 28 30 32 33 33 33 33 32 31 31 31 31 30 30 30 28 28 27 28 28 29 28 27 25 23 22 20 19 19 20 19 18 16 15 13 11 11 10 9 9 7 6 5 3 3 4 5 5 5 5 4 3 2 3 2 1 0 1 2 3 3 4 4 4 5 6 7 8 8 9 11 12 13 14 15 16 17
26 26 27 29 30 31 30 28 28 30 32 32 33 33 33 33 33 32 32 31 31 31 30 29 28 27 27 27 27 28 29 29 27 24 23 21 20 21 21 19 17 15 13 11 11 10 10 10 8 7 6 4 3 4 5 5 5 5 4 3 2 3 2 2 1 0 1 2 2 3 3 3 4 4 5 6 7 8 10 11 12 13 14 16 17
27 27 28 30 30 30 30 30 31 32 32 32 32 32 32 33 33 32 31 31 31 32 32 32 31 29 28 27 26 27 29 31 31 28 25 23 22 22 22 21 18 16 13 11 11 11 12 12 11 9 8 6 5 5 5 5 5 5 4 3 3 3 3 2 1 0 1 2 2 2 2 3 3 3 4 5 6 7 9 10 11 12 13 14 16
27 27 29 30 30 29 30 32 33 33 32 31 30 30 32 33 33 31 29 27 27 28 31 33 33 32 30 29 28 27 29 31 32 30 26 23 21 22 23 22 19 16 13 12 11 12 14 14 13 12 11 9 7 6 5 5 5 6 5 5 4 4 4 3 2 2 1 2 2 3 3 3 3 4 4 5 6 7 8 9 10 10 11 12 14
26 26 27 28 29 29 29 29 31 32 32 31 29 28 28 30 30 29 27 25 24 24 25 27 30 31 31 30 28 28 28 28 28 28 27 23 21 21 22 21 19 16 13 12 12 13 15 16 15 14 13 11 10 8 7 6 6 6 6 6 6 6 6 5 5 4 3 2 3 4 4 4 5 5 5 6 6 7 7 8 9 9 10 11 12
25 25 25 26 27 28 28 28 29 30 31 31 30 28 26 26 26 26 24 22 21 21 22 23 25 28 30 29 28 27 26 24 24 27 28 24 22 22 22 21 18 16 14 13 14 14 16 17 16 16 15 14 12 10 9 8 8 7 7 8 8 9 8 8 7 6 5 4 4 5 5 6 6 6 7 7 7 7 8 8 8 9 9 9 10
26 25 25 26 27 28 29 29 30 29 28 29 29 28 26 24 21 20 20 20 19 19 20 20 22 24 27 28 28 27 25 23 24 26 27 25 24 23 22 20 18 17 15 15 16 16 16 16 17 16 16 16 15 13 11 10 9 8 8 9 10 10 10 10 9 8 7 7 6 7 7 7 8 8 8 8 9 9 9 9 8 9 9 9 9
27 27 28 28 29 30 29 29 29 30 30 30 30 28 27 25 23 20 18 17 17 18 18 19 19 21 24 26 27 27 25 23 24 26 27 26 24 23 22 20 18 17 16 16 18 18 17 17 17 17 16 16 15 14 13 12 10 9 9 9 10 11 12 12 11 10 10 9 9 9 9 8 9 10 10 10 10 10 10 9 9 9 9 9 8
28 29 30 31 31 31 30 30 31 31 31 32 32 31 30 29 27 24 20 18 18 18 17 17 18 19 21 24 26 25 23 22 24 26 26 25 24 23 21 19 19 17 17 17 19 20 19 18 17 17 17 16 15 14 14 13 11 11 10 10 10 11 12 13 13 12 12 12 11 11 11 10 11 11 11 12 11 11 10 10 10 9 9 9 9
27 29 31 32 32 32 32 32 32 31 31 31 31 32 31 29 27 26 25 24 23 22 20 19 18 18 19 22 25 25 22 21 23 25 25 24 24 23 21 20 20 19 18 18 19 21 20 19 18 17 17 17 16 16 15 13 13 12 11 11 10 10 12 14 14 14 13 13 13 13 13 13 13 12 12 12 12 11 11 11 10 10 10 10 10
27 29 31 31 31 31 31 32 32 32 32 32 31 31 30 28 27 26 26 25 25 24 22 20 18 17 17 19 22 23 21 20 23 25 24 23 23 23 22 22 22 22 21 20 19 20 21 20 18 18 17 17 17 16 15 14 13 12 11 11 10 10 11 13 14 14 14 14 15 15 15 14 14 14 14 13 12 12 12 11 11 11 11 11 11
28 29 31 31 31 30 30 30 30 30 30 30 29 29 28 27 26 26 25 24 24 23 23 21 20 19 18 19 21 22 21 21 24 25 24 23 23 23 23 23 24 24 24 22 20 20 20 20 20 19 19 18 17 16 16 15 14 13 12 12 12 11 11 12 12 13 13 14 14 14 15 15 14 14 14 14 14 13 12 12 12 12 12 12 12
29 30 31 32 31 30 29 29 28 28 27 27 27 27 27 26 25 25 25 24 24 24 23 22 22 21 21 21 22 23 22 22 24 24 24 24 23 22 23 23 23 24 24 23 22 20 20 20 20 20 20 20 19 18 17 16 15 14 14 14 14 13 13 13 13 13 14 14 14 13 14 14 14 14 14 15 15 14 14 13 13 14 14 14 14
29 29 30 31 31 30 30 29 28 27 27 26 26 25 25 24 25 25 25 24 23 23 24 23 23 23 22 22 23 24 24 23 24 25 26 25 24 24 24 25 25 24 24 24 23 21 20 20 20 19 20 20 20 20 19 18 17 16 16 16 16 15 15 15 15 15 16 16 15 14 14 14 14 14 14 15 16 16 15 15 14 14 15 15 15
28 28 28 29 29 29 29 28 28 27 27 27 27 26 25 25 26 26 25 25 24 24 24 24 24 24 23 23 24 26 27 27 28 28 27 27 27 27 27 27 27 27 26 25 24 23 21 20 19 19 19 20 20 20 20 19 19 18 18 17 18 18 17 17 17 17 17 17 16 16 15 14 14 14 15 16 16 16 16 16 16 15 16 16 16
26 27 28 28 28 28 27 27 27 27 27 27 27 27 27 27 27 27 26 25 24 24 24 24 24 23 23 24 25 26 28 29 30 30 29 28 28 28 29 29 29 28 27 26 25 23 22 20 19 19 20 20 20 20 20 20 20 20 19 19 19 19 19 19 19 19 18 18 18 17 17 16 15 16 16 16 16 16 17 18 18 17 17 17 17
25 26 27 27 27 27 27 27 27 26 26 26 26 25 24 22 23 24 25 24 23 23 23 23 22 22 22 23 25 26 28 29 29 29 29 28 28 28 28 28 28 28 27 26 25 23 22 20 20 20 20 21 20 20 21 21 21 21 21 20 21 21 21 21 21 21 21 20 20 20 19 18 18 18 18 17 17 17 18 18 19 19 19 19 19
25 26 26 27 27 27 27 27 26 26 26 26 25 24 22 20 19 20 21 22 22 22 22 21 21 20 20 20 21 23 26 27 27 28 28 28 27 27 26 26 26 26 26 25 24 23 22 21 20 20 21 22 22 22 22 21 21 22 22 22 22 22 22 22 22 22 22 23 22 22 22 22 21 21 21 20 20 19 19 19 19 20 20 20 21
24 24 24 25 25 25 24 24 24 24 25 25 24 23 21 20 19 20 20 21 21 21 20 19 19 18 18 18 18 20 23 25 26 27 27 26 26 25 24 24 25 25 25 24 23 23 22 21 20 18 19 19 21 22 22 22 22 23 24 24 24 24 24 24 24 23 23 23 23 22 22 22 22 23 23 23 23 23 22 22 22 21 21 22 22
23 23 23 24 24 23 22 22 22 23 23 22 21 20 19 19 19 20 21 22 21 19 18 16 16 16 17 17 17 19 21 23 25 26 26 25 25 24 23 22 22 23 23 23 23 23 23 22 20 19 18 18 18 20 21 22 23 23 24 25 26 26 25 24 23 23 23 24 23 23 22 22 22 22 23 23 23 24 24 24 24 24 24 24 24
23 22 22 23 23 22 22 22 21 21 21 21 20 20 19 18 18 20 21 20 18 17 15 15 14 15 16 16 16 18 19 20 22 25 25 25 24 23 22 21 20 20 21 21 21 23 24 24 22 21 20 19 19 20 21 22 22 23 24 25 26 26 26 25 25 25 26 26 26 25 25 24 23 23 23 23 23 24 25 25 25 25 26 26 27
22 22 22 22 22 22 21 21 21 20 20 19 19 19 17 16 17 17 18 17 16 14 13 12 12 13 14 14 15 16 17 18 20 22 23 23 22 21 21 20 19 18 18 18 19 22 24 25 26 26 24 23 22 21 21 22 23 24 24 25 26 26 27 26 27 28 28 28 29 29 28 28 27 26 26 25 25 26 26 26 27 28 28 29 29
21 21 21 21 21 21 21 21 20 19 18 18 17 16 15 14 14 15 16 15 13 12 11 10 10 11 11 12 12 14 16 17 18 18 19 19 18 18 18 18 18 18 18 18 19 20 23 24 26 27 26 25 24 23 22 23 23 24 25 25 26 26 27 27 28 30 30 31 32 32 32 32 31 30 29 29 28 28 29 29 29 29 30 30 31
20 20 21 21 21 21 21 21 20 19 18 17 16 15 12 11 12 13 13 12 11 10 10 8 7 7 7 8 9 10 12 14 14 13 14 14 15 15 16 16 16 16 17 17 18 19 20 21 22 23 24 25 25 24 24 24 24 25 26 26 27 27 27 28 29 30 30 31 33 33 33 33 33 32 32 32 31 32 32 31 31 32 31 30 31
18 19 19 19 19 18 18 19 19 18 17 15 13 11 9 9 10 10 10 10 10 9 7 6 5 5 6 8 9 10 11 10 9 8 8 9 10 11 13 14 14 15 15 16 17 18 19 20 21 23 23 24 24 24 24 24 25 27 27 28 28 28 28 29 29 30 29 30 30 30 31 32 33 33 33 33 33 34 35 34 34 34 33 33 34
16 16 16 16 16 16 16 16 17 16 13 11 9 7 7 8 8 9 9 9 8 6 4 3 4 6 8 9 11 12 12 10 9 8 8 8 9 11 12 14 14 14 15 16 16 17 18 19 20 20 21 21 21 20 20 22 23 25 27 28 28 29 29 29 30 29 29 28 28 27 28 29 30 32 33 34 34 36 36 36 36 36 35 35 35
Wind_Direction
190 182 178 178 177 178 183 186 187 187 183 181 179 173 170 167 164 161 158 156 157 158 161 158 154 152 150 148 140 128 117 110 106 107 113 119 120 116 110 104 100 98 97 97 96 95 93 89 84 80 77 74 70 68 67 66 65 62 59 56 52 48 45 46 43 23 22 26 26 26 27 29 30 31 31 30 31 31 30 31 26 24 29 34 35
190 185 181 181 181 180 182 184 184 183 179 179 176 172 171 169 165 164 161 159 160 162 163 160 156 154 152 150 143 132 122 114 112 111 116 124 124 118 114 108 104 102 100 99 97 96 93 89 86 82 78 75 71 70 68 66 65 62 59 57 53 49 48 47 45 32 21 23 26 27 29 30 28 29 30 29 29 29 28 28 27 25 30 35 36
187 185 183 182 182 181 181 180 179 178 176 175 174 173 173 169 168 168 165 162 164 167 167 164 160 156 155 154 148 138 128 120 117 114 119 128 128 123 118 112 107 105 103 102 100 98 95 90 87 84 82 77 73 71 69 66 64 63 60 58 56 53 52 51 47 39 27 23 26 26 28 30 28 28 31 31 30 30 28 28 28 27 31 37 37
183 183 181 180 180 179 178 177 175 174 173 173 173 173 171 168 170 171 169 167 169 172 173 169 165 162 159 159 154 145 137 129 123 118 121 131 133 128 123 116 111 109 107 106 103 99 96 91 86 85 83 80 75 72 70 67 64 63 62 60 59 57 56 55 52 46 38 31 28 27 28 31 31 29 32 33 33 33 31 28 28 28 31 38 39
180 179 179 176 175 175 174 173 172 171 172 173 173 172 170 169 172 174 174 172 174 177 177 175 173 170 166 164 160 153 146 138 130 124 125 134 137 133 128 121 116 113 110 108 106 102 98 92 87 83 81 80 77 73 70 68 66 64 63 61 61 60 59 57 54 51 47 39 33 32 31 32 32 30 31 31 30 32 34 31 30 28 29 35 38
177 177 176 174 172 172 172 171 170 171 173 174 174 174 174 174 176 178 179 179 178 179 178 178 178 175 171 169 165 158 153 147 137 130 131 139 143 139 133 128 121 116 113 110 108 105 100 96 89 82 78 78 79 77 72 70 68 66 65 63 63 62 60 57 54 52 50 45 38 34 32 30 29 28 29 30 27 25 26 28 30 29 27 29 32
175 175 174 173 171 171 171 170 171 174 176 176 177 179 179 180 180 181 184 183 180 178 177 176 176 175 173 171 168 163 159 153 145 137 137 145 148 144 139 136 129 121 117 114 112 108 103 99 92 82 77 78 83 81 76 73 71 69 67 66 65 63 61 57 54 52 50 46 41 35 32 31 30 28 28 32 32 27 23 21 22 24 25 26 27
172 173 173 172 172 171 170 171 173 176 177 178 180 182 183 183 182 181 182 182 180 179 177 175 174 173 173 172 171 168 164 160 154 146 144 149 153 149 143 142 136 130 126 121 117 113 108 102 94 85 79 81 85 83 78 74 73 71 69 67 65 64 62 58 55 53 50 47 42 37 34 31 29 27 27 28 27 23 22 21 18 17 22 26 25
171 171 171 172 172 171 170 171 173 175 175 176 180 182 183 182 182 181 180 180 180 179 178 178 176 174 173 173 173 172 169 165 161 157 153 154 158 154 146 144 142 138 136 133 127 122 117 107 97 91 88 86 83 84 82 75 73 73 71 68 65 63 62 59 55 54 51 48 42 37 34 30 26 24 23 23 20 17 21 25 23 20 23 28 28
171 170 171 173 172 171 170 171 172 173 174 177 179 180 180 179 179 179 178 178 179 179 178 179 179 178 176 174 173 173 172 168 165 165 161 159 161 158 149 144 145 144 140 137 135 130 124 117 106 99 96 91 85 86 86 79 75 76 72 68 65 63 61 59 56 55 53 49 43 38 35 30 26 24 22 22 23 23 23 23 22 21 23 25 24
170 170 172 173 171 170 171 171 171 173 175 178 178 178 177 177 177 176 176 177 178 179 179 180 181 181 178 175 174 173 172 170 167 168 166 164 165 161 154 148 146 147 144 138 133 128 124 122 119 109 98 95 92 93 94 86 79 77 74 69 66 63 61 60 58 57 56 52 47 42 38 31 28 28 26 25 25 25 24 24 23 21 21 19 14
169 170 173 172 171 171 172 171 171 173 176 177 177 177 176 175 175 175 175 177 177 177 180 180 181 181 179 176 175 173 172 171 169 172 173 171 171 165 158 151 149 149 149 143 136 130 124 121 122 120 110 105 102 100 101 95 84 77 74 70 66 63 61 60 59 58 57 56 51 45 41 35 33 31 27 25 25 25 28 28 26 22 19 18 13
169 170 172 173 173 173 173 172 172 173 176 178 178 178 177 175 174 175 175 176 177 177 179 181 181 181 180 177 175 173 171 171 172 177 179 178 176 170 161 154 152 152 150 149 144 136 129 125 126 129 126 120 114 108 106 102 92 80 74 69 65 62 60 57 58 57 56 57 55 50 45 40 38 35 31 30 28 27 27 26 25 25 22 21 18
170 171 172 174 174 173 173 174 174 176 179 181 180 178 177 176 175 176 176 176 177 178 180 181 181 180 180 177 174 173 172 172 176 181 184 183 177 170 163 157 153 152 149 150 148 143 138 133 131 136 139 135 128 118 110 106 100 88 76 70 65 60 58 55 54 54 53 55 55 53 50 45 41 38 35 35 34 31 27 24 24 25 24 26 25
171 171 171 172 173 173 175 176 177 179 180 180 178 176 176 176 175 176 177 178 180 181 181 182 180 178 179 178 176 175 173 173 179 186 186 181 174 169 166 161 157 152 149 149 148 148 148 144 141 144 148 148 142 131 119 109 103 94 82 74 67 62 59 54 49 47 48 50 52 51 48 44 41 38 35 35 37 38 36 34 32 31 31 32 30
174 172 169 170 173 175 176 176 177 177 177 176 175 174 173 175 175 176 177 178 180 181 180 180 179 177 178 181 180 176 173 175 182 187 182 175 171 168 166 163 160 155 152 151 150 150 151 150 149 150 152 158 156 148 136 115 101 98 90 81 74 67 61 55 48 43 41 42 44 45 43 40 38 36 34 34 35 37 40 40 37 34 32 29 25
175 172 169 172 176 176 176 175 172 168 166 166 166 167 170 173 176 178 178 178 178 179 179 178 179 180 181 184 183 175 169 173 182 181 175 172 170 167 164 160 156 151 147 146 146 146 145 146 150 152 154 163 167 162 152 126 99 100 98 89 81 73 65 60 53 45 41 39 38 38 36 34 33 33 33 33 31 31 35 37 34 31 30 24 15
176 173 173 177 178 176 175 172 165 161 165 168 169 172 175 178 180 181 181 180 178 179 179 177 179 184 184 183 181 172 163 166 174 173 171 172 170 165 160 154 148 144 141 138 137 138 137 136 142 146 148 161 171 169 163 142 101 105 107 98 88 79 72 69 62 53 47 42 40 38 34 29 28 29 31 31 29 28 32 34 33 31 32 27 13
177 176 178 178 176 173 170 170 171 175 179 178 178 180 182 182 182 182 182 182 179 178 178 177 177 179 179 175 173 166 159 162 170 172 170 172 169 164 158 152 146 143 141 138 136 135 134 132 135 135 137 158 174 173 170 164 108 110 117 105 94 88 82 74 68 64 56 47 41 38 34 30 28 27 28 29 28 27 29 31 31 32 33 30 23
179 177 176 174 172 172 172 175 179 181 179 176 176 180 182 180 180 180 181 181 179 176 176 177 173 171 170 169 167 164 160 162 169 173 172 172 171 166 162 155 148 145 145 143 140 139 138 137 136 132 131 150 171 176 178 179 149 134 138 105 93 97 93 78 70 66 55 43 36 33 33 33 31 29 28 29 29 27 26 25 27 30 31 30 29
174 172 170 170 171 173 175 176 177 176 175 176 177 180 182 180 179 180 180 180 178 175 174 175 172 168 168 168 166 164 163 164 169 173 175 175 175 172 167 160 154 150 148 147 145 143 142 140 139 138 138 147 165 178 182 185 184 180 175 120 100 113 103 84 73 67 53 39 32 30 32 35 36 34 29 28 29 27 24 21 21 24 27 28 28
171 167 167 169 170 171 172 174 176 179 180 180 179 180 180 179 179 179 179 179 178 176 175 175 173 170 170 170 168 167 167 168 171 174 177 179 178 177 171 163 159 157 152 148 146 142 138 135 133 136 142 151 161 172 176 181 186 186 190 195 170 148 126 97 74 56 39 32 29 28 31 36 38 36 32 30 31 30 25 21 17 16 19 20 21
169 163 164 165 166 169 172 175 182 185 182 180 181 180 179 178 178 178 178 178 177 177 178 178 177 175 174 174 173 172 172 173 174 175 178 179 179 179 174 164 162 163 157 152 150 145 139 135 131 128 136 151 163 169 172 175 179 182 181 187 195 195 191 168 49 29 22 24 27 29 34 37 37 37 34 33 36 37 32 24 17 14 13 11 11
160 161 164 164 165 169 171 178 186 184 178 178 180 179 178 178 178 178 179 178 177 177 178 181 182 181 180 180 179 179 179 179 179 179 179 179 179 179 176 168 164 165 161 156 154 152 147 144 140 134 133 144 162 174 176 174 175 174 169 172 189 208 218 234 360 24 21 19 20 27 36 38 38 39 36 35 39 41 36 29 22 18 18 15 12
161 164 164 163 166 167 170 178 183 180 177 179 180 179 179 178 177 179 181 180 179 178 178 182 185 186 186 186 186 186 185 185 184 183 181 181 181 181 179 175 170 168 166 162 160 159 155 153 153 151 147 146 161 174 177 175 173 171 167 169 185 213 229 245 351 28 22 17 16 22 31 35 36 39 37 35 37 35 30 28 27 25 25 26 26
164 164 163 164 166 167 171 176 177 177 180 183 183 184 184 182 180 182 183 183 183 182 182 183 186 187 189 191 191 191 192 191 190 188 185 185 185 184 183 182 179 176 173 171 171 170 167 164 164 165 165 161 164 172 173 168 166 169 172 179 205 230 239 241 273 31 30 28 18 14 21 28 29 32 32 31 28 23 20 21 24 27 28 29 31
168 166 166 166 166 169 173 173 173 177 180 182 183 185 187 185 183 183 183 185 186 186 186 187 188 188 189 191 193 195 197 197 195 192 189 189 189 189 188 188 186 183 182 181 182 185 183 178 174 175 177 174 174 176 174 171 173 178 184 197 226 239 236 238 249 348 29 17 6 7 15 18 15 16 18 18 15 13 13 13 17 22 24 24 27
170 168 169 167 167 172 176 176 176 178 180 182 184 184 185 186 186 187 189 191 191 191 191 192 193 193 191 190 191 195 199 201 200 196 192 190 192 192 192 192 191 189 187 187 189 192 192 187 184 185 187 188 187 184 180 184 191 195 195 202 222 233 236 243 255 286 335 335 335 341 345 354 3 5 6 7 6 6 7 6 7 12 17 20 24
171 170 171 169 169 174 177 177 177 178 180 183 186 187 189 190 192 194 198 200 203 203 201 200 200 200 197 194 193 194 198 202 203 201 197 194 194 195 196 195 194 192 192 193 193 195 195 193 193 194 195 199 200 199 198 200 201 204 206 209 217 227 234 242 250 268 302 322 316 312 316 327 341 348 352 355 357 358 360 1 1 4 10 17 23
169 171 171 169 171 174 173 172 174 177 179 183 186 190 193 194 196 200 202 205 211 214 213 211 210 206 203 201 200 201 204 203 201 200 200 197 197 199 199 197 195 196 198 198 198 200 200 199 201 203 205 209 211 212 214 214 213 216 216 217 223 230 237 246 255 262 270 282 295 301 308 315 323 332 340 344 348 353 356 359 0 2 5 12 20
167 169 170 170 172 174 172 173 177 179 182 184 187 189 191 194 200 206 208 209 213 216 218 220 218 213 209 206 204 206 209 206 200 199 199 198 199 199 199 198 198 200 204 205 205 207 207 206 208 211 214 218 221 223 225 225 226 229 228 230 234 236 241 249 254 257 261 268 279 289 294 304 313 321 329 333 336 340 344 348 353 358 2 7 13
168 168 170 173 175 176 177 178 180 181 182 185 188 188 187 188 194 203 209 211 214 216 220 223 222 218 214 210 207 207 208 206 202 200 198 198 198 198 199 200 201 204 210 212 212 213 214 214 217 218 221 224 227 229 232 234 236 240 241 242 243 241 243 248 251 255 262 266 274 281 285 292 300 306 315 322 324 326 330 335 340 347 354 359 2
174 173 174 176 178 179 180 180 182 184 185 186 188 188 188 187 188 191 197 205 211 215 219 223 223 219 215 213 212 213 212 207 202 199 197 197 198 198 200 203 205 208 214 217 217 217 219 222 225 225 227 230 231 233 236 238 241 245 249 252 251 246 245 249 251 255 261 265 271 277 279 283 289 295 302 309 313 315 319 325 330 335 341 346 350
182 181 182 182 182 182 183 184 186 189 190 190 190 190 192 194 192 187 184 187 195 205 211 215 218 217 215 214 213 214 215 210 203 200 198 198 199 200 202 206 209 213 218 220 221 221 223 227 230 231 232 235 236 236 238 240 242 245 250 257 258 250 246 249 253 256 261 266 270 274 277 279 283 288 293 299 304 307 309 314 321 326 329 334 339
186 186 186 187 187 187 188 189 190 191 192 193 193 192 194 196 195 192 190 189 190 195 201 206 209 212 215 215 213 212 213 212 206 202 201 200 200 202 206 210 213 216 219 221 223 225 227 231 233 234 236 239 239 239 240 242 245 247 251 257 261 255 249 251 254 258 262 265 270 274 279 280 281 282 286 291 296 298 301 306 312 317 321 325 328
187 187 187 189 190 191 191 191 193 194 195 196 195 194 195 196 196 197 197 196 194 194 196 199 202 206 212 214 212 210 210 208 204 201 200 201 204 207 211 214 217 219 221 223 225 226 230 233 236 237 238 239 240 242 242 244 246 249 252 256 260 259 256 256 258 261 264 267 272 276 278 281 282 280 279 283 289 291 294 300 305 309 314 317 318
189 190 190 191 193 194 193 193 194 196 197 197 195 194 195 197 198 198 198 198 196 194 194 194 195 197 201 207 208 207 204 201 199 198 200 204 209 214 218 221 223 223 224 226 228 230 233 236 239 241 240 240 241 242 243 244 247 249 251 254 255 258 260 260 260 263 265 268 273 277 278 281 284 281 276 275 281 287 289 293 298 301 305 308 312
194 195 195 195 195 195 193 193 193 195 196 196 195 195 195 196 198 200 200 199 197 195 195 195 195 197 200 202 202 202 200 198 198 201 206 211 216 220 224 226 229 230 231 231 232 234 238 240 243 243 243 243 244 245 245 247 248 249 251 252 254 256 259 260 260 260 262 265 271 277 279 280 283 284 278 273 275 282 286 289 294 297 300 300 302
197 199 199 197 196 194 193 193 193 194 194 194 194 196 196 196 198 200 200 199 198 198 197 197 200 205 207 203 200 200 200 200 202 206 211 216 221 224 226 230 233 236 237 236 236 237 240 242 242 243 242 243 245 247 248 250 251 252 253 254 254 256 257 259 261 263 264 266 270 274 278 280 281 283 281 275 274 278 283 286 290 294 298 299 298
197 198 199 197 194 193 193 193 193 193 192 193 194 195 197 201 204 203 201 200 200 201 202 203 207 211 213 211 207 204 204 206 209 211 213 218 222 225 228 231 234 238 240 239 237 238 241 242 241 242 244 246 247 248 250 252 253 254 255 256 257 258 260 261 264 267 267 269 270 271 274 277 279 279 279 278 278 279 280 282 285 288 292 296 296
199 198 196 194 193 192 191 192 195 196 196 195 195 197 201 206 207 204 202 202 203 205 207 211 215 219 221 220 218 215 213 214 216 217 220 224 227 229 231 233 235 239 241 240 236 238 242 243 244 247 249 250 250 250 251 252 254 255 257 258 259 261 263 264 265 268 269 271 271 271 271 274 275 275 277 281 282 280 279 280 282 284 287 291 293
201 197 194 192 192 192 191 192 195 196 196 196 197 199 203 206 206 203 203 204 206 209 212 216 222 226 227 225 223 221 220 221 223 225 228 231 233 234 236 237 238 240 242 240 236 238 243 247 250 253 253 252 252 252 253 254 255 255 257 259 260 262 264 266 268 270 271 272 273 273 272 273 273 273 276 279 281 280 279 280 281 282 283 286 288
204 200 195 192 192 193 193 193 193 193 194 196 199 201 203 205 207 208 208 209 212 215 218 221 225 228 229 228 224 222 222 224 227 230 234 236 237 239 241 241 241 242 244 242 238 240 245 249 252 254 255 254 253 254 256 259 260 259 259 261 263 264 266 269 271 273 274 275 276 277 276 275 273 273 273 275 276 277 279 280 281 282 283 284 285
203 200 195 192 192 193 194 194 194 194 195 196 198 199 201 203 207 212 214 215 216 219 221 223 226 227 227 226 223 222 224 226 228 231 235 238 241 245 247 246 245 244 245 245 242 241 244 247 250 254 256 256 256 256 258 261 263 263 263 264 266 268 270 272 274 276 278 278 279 280 280 279 277 276 274 275 275 275 276 278 279 281 283 284 284
203 200 195 191 191 193 195 196 197 196 193 192 193 197 200 203 210 216 218 217 217 219 221 224 227 228 228 227 227 227 227 229 231 234 238 242 247 251 253 252 250 249 249 249 246 242 243 247 252 256 260 262 262 262 263 264 265 266 266 267 268 270 273 275 278 280 280 280 280 281 281 280 279 278 277 277 276 275 276 277 279 280 281 282 282
204 200 195 192 192 193 194 195 195 194 193 192 193 196 200 205 210 215 217 217 218 220 223 227 231 233 233 233 234 234 234 236 239 242 244 248 253 257 259 257 256 255 256 256 250 245 245 250 255 260 265 269 271 270 269 268 268 268 269 269 270 272 275 278 280 280 279 279 278 279 279 279 278 278 278 277 276 275 275 276 276 277 278 279 280
203 199 196 194 192 190 190 191 191 190 191 193 196 199 202 207 211 215 219 222 223 224 228 235 242 245 245 244 245 247 249 250 251 252 252 254 257 260 262 261 260 259 260 259 255 250 250 253 257 261 266 271 275 275 273 270 270 271 272 274 274 275 276 279 279 280 280 281 279 278 278 277 277 277 277 277 276 275 275 276 276 277 277 278 279
199 196 194 191 188 186 185 185 185 185 188 192 197 200 203 208 215 219 222 226 229 233 239 246 249 251 251 252 255 259 261 260 259 258 258 258 259 260 260 261 262 263 264 263 261 258 256 256 259 262 265 269 275 277 276 274 274 274 275 276 277 278 280 282 281 281 281 281 280 279 278 277 277 278 278 277 276 276 276 276 277 278 278 278 279
193 190 187 185 183 183 183 183 183 185 188 190 194 198 203 210 218 223 228 237 245 248 249 249 251 256 261 262 261 262 263 263 263 263 261 260 259 261 263 265 267 268 269 268 266 264 262 261 262 264 268 272 277 278 277 275 274 274 276 278 280 282 283 283 283 282 282 281 280 280 279 278 277 277 277 278 278 277 277 276 277 278 278 277 277
183 181 180 179 179 180 182 182 182 182 182 185 193 201 204 209 217 226 236 246 250 249 250 258 263 264 264 265 265 265 265 265 267 270 266 259 256 257 260 262 263 264 267 269 270 270 270 269 269 270 273 276 279 279 277 275 274 276 279 282 284 285 286 286 286 286 285 283 282 280 279 278 278 277 276 277 277 276 275 276 277 277 277 276 276
168 169 173 175 177 178 179 177 176 176 178 185 191 190 187 197 215 232 242 247 249 253 273 303 299 284 277 276 277 277 276 271 264 260 259 261 260 260 263 266 268 269 271 273 275 277 278 279 280 282 284 285 286 285 283 280 279 280 282 283 284 285 285 286 286 286 285 284 282 280 277 276 275 274 274 274 274 273 274 275 275 275 275 274 275
Height
796 798 800 803 806 808 811 814 816 819 821 824 826 827 829 829 830 832 833 835 837 838 838 839 840 841 842 843 844 844 845 845 846 847 847 848 849 849 850 849 848 849 849 849 848 848 847 847 847 847 846 845 844 844 843 842 841 840 840 838 837 837 835 833 832 832 831 829 827 825 822 818 815 813 811 809 806 805 803 801 799 797 794 792 790
795 797 799 802 805 807 810 813 815 818 821 823 825 826 827 829 830 831 833 835 837 838 839 840 841 842 843 844 845 845 846 846 847 848 849 849 850 851 851 850 850 850 850 850 850 849 849 849 849 849 849 847 847 846 845 845 844 843 842 841 840 838 837 835 834 834 833 830 828 825 823 820 817 815 813 811 809 807 805 803 801 799 797 794 792
795 797 799 801 804 806 809 812 815 817 820 822 824 825 826 828 829 831 832 834 836 838 839 840 841 842 843 844 845 846 847 847 849 849 850 850 851 852 852 852 851 851 851 851 851 851 851 851 851 851 851 849 848 848 847 847 846 845 844 843 842 840 839 837 835 835 835 833 830 827 824 821 819 817 816 814 812 809 807 805 804 801 799 796 794
794 796 799 801 803 806 808 811 814 816 819 821 822 824 825 827 829 830 832 834 836 838 839 841 842 842 844 845 846 847 847 848 850 850 851 852 852 853 853 853 852 852 852 852 853 853 853 852 853 853 852 851 850 850 850 849 848 847 846 845 844 842 840 839 837 837 836 834 832 829 827 825 823 820 818 815 813 811 809 808 806 803 801 799 796
793 795 798 800 802 805 808 810 813 815 818 820 821 823 825 827 828 830 831 833 836 838 839 841 842 843 844 845 846 847 848 849 850 851 852 853 853 854 854 853 853 853 853 853 854 854 854 854 854 854 854 852 852 852 852 851 851 850 849 847 846 844 842 841 840 839 838 836 834 832 830 827 825 823 821 817 815 812 810 809 807 805 803 801 798
792 795 797 799 802 804 807 809 812 815 817 819 820 823 824 826 828 829 831 833 835 837 839 841 842 843 844 845 846 847 849 850 851 851 853 853 854 855 854 854 854 854 854 854 855 855 855 855 856 855 855 854 854 854 854 854 853 852 851 849 848 846 844 843 843 841 839 838 837 834 832 829 827 825 823 821 818 815 812 810 808 807 805 802 800
791 794 797 799 801 804 806 809 812 814 816 818 820 822 824 825 827 829 831 832 834 837 839 841 842 843 844 846 847 848 849 850 851 852 853 854 855 855 855 855 855 854 855 855 856 856 856 857 856 856 856 856 856 856 856 855 855 854 853 851 850 848 846 846 845 843 841 839 838 836 834 832 830 828 826 823 821 818 815 812 810 808 806 805 802
790 793 795 798 800 803 805 808 811 813 815 817 819 821 823 825 826 828 830 832 834 836 838 840 842 843 845 846 847 848 849 850 852 852 854 855 855 855 855 855 855 855 855 856 857 857 857 857 857 857 857 857 858 858 857 857 857 856 855 853 852 850 849 848 847 845 843 841 840 839 837 835 833 830 828 824 821 819 818 817 815 812 810 808 806
789 791 794 797 800 802 805 808 810 813 815 817 819 821 822 824 826 827 829 831 834 836 838 840 841 843 844 846 847 848 849 851 852 853 854 855 855 855 855 855 855 856 856 857 857 858 858 858 858 858 859 859 859 859 859 859 858 857 856 855 853 852 851 850 849 847 845 843 842 841 839 837 834 832 829 826 825 824 822 820 818 816 813 811 808
787 790 793 796 799 802 804 807 809 812 814 817 819 820 822 823 825 827 829 831 833 836 838 839 841 842 844 845 847 848 850 851 852 853 854 855 855 855 855 856 856 856 857 857 858 858 858 859 859 859 860 860 860 860 860 860 860 859 858 856 855 854 853 852 851 849 847 845 844 843 841 839 838 836 834 832 831 829 826 823 820 818 815 811 809
786 789 792 795 798 801 803 806 809 811 814 816 818 820 821 823 824 826 829 831 833 835 837 839 841 842 844 845 847 848 850 851 852 853 854 855 855 855 855 856 856 857 857 858 858 858 859 859 859 860 860 861 861 861 862 861 861 860 859 858 857 856 855 854 853 851 849 848 847 846 844 843 842 839 838 836 833 831 829 826 824 821 818 815 813
785 788 791 795 798 800 803 805 808 811 813 815 818 819 821 822 824 826 829 831 833 835 837 839 841 842 844 845 846 848 849 851 852 853 854 855 855 856 856 856 857 857 858 858 858 859 859 860 860 860 861 861 862 862 863 863 862 861 860 859 858 858 857 856 855 853 852 850 849 848 847 846 845 842 840 838 836 834 831 829 827 825 823 821 819
785 787 790 794 797 799 802 804 807 810 812 815 817 819 820 822 824 826 828 831 833 836 838 839 841 842 844 845 846 848 849 851 852 853 854 855 855 855 856 856 857 857 858 858 859 859 860 860 861 861 861 862 862 863 863 863 863 862 862 861 860 859 859 858 856 855 854 853 852 851 850 849 847 845 844 842 839 836 834 832 830 828 826 824 823
784 786 789 792 795 798 800 803 806 809 811 814 815 817 819 821 824 826 829 831 833 836 838 839 841 842 844 845 846 847 849 850 851 853 853 854 855 855 856 856 857 858 858 858 859 859 860 861 861 861 862 862 863 864 864 864 864 863 862 862 861 861 860 860 858 857 856 855 854 853 852 851 850 849 847 845 842 839 837 835 833 830 829 827 826
783 785 787 791 794 797 799 802 805 808 811 813 815 817 819 821 824 826 829 831 833 835 837 839 841 842 844 845 846 847 848 850 851 852 853 853 854 855 856 856 857 858 858 859 859 860 860 861 862 862 862 863 864 864 864 864 864 864 863 863 863 862 862 861 859 858 858 857 856 855 854 853 852 851 850 848 845 843 841 839 836 834 831 829 827
783 784 786 790 793 795 798 801 805 808 811 814 816 817 819 821 824 826 829 831 833 835 837 839 841 842 844 845 846 846 848 849 850 851 852 853 854 855 856 856 857 857 858 859 859 860 860 861 862 863 863 863 864 864 865 865 864 864 864 864 864 863 862 861 861 860 859 858 857 856 855 855 854 852 851 849 847 846 843 840 837 835 832 829 827
781 783 785 788 792 795 798 801 805 809 813 817 821 822 823 824 826 828 830 832 834 835 837 839 841 842 844 845 845 846 847 848 850 851 852 853 854 855 855 856 856 857 858 859 859 860 861 862 862 863 864 864 864 865 865 865 865 864 864 864 864 864 863 862 861 861 860 860 859 858 857 856 855 854 852 851 849 847 844 840 838 836 833 830 828
778 780 782 786 790 793 797 800 804 808 812 815 820 823 825 826 828 829 831 832 834 836 837 839 841 843 843 844 844 845 846 848 850 851 852 853 854 854 855 856 856 857 858 859 860 860 861 862 863 864 864 864 865 865 865 865 865 865 865 865 865 864 864 863 862 862 861 861 860 859 858 857 856 854 853 852 850 848 845 843 841 839 836 834 833
773 776 780 784 789 792 796 799 802 804 805 807 812 817 821 824 827 830 831 832 834 836 838 840 841 843 843 844 844 845 846 848 850 852 853 854 855 855 855 855 856 857 858 858 860 861 862 863 863 864 865 865 865 865 865 865 865 865 865 865 865 865 864 864 863 863 862 862 861 860 859 858 856 855 854 853 851 849 847 846 845 842 840 838 836
769 773 779 784 788 792 795 797 799 802 805 808 812 816 819 823 826 828 830 832 834 836 839 840 841 842 843 844 845 846 846 848 850 852 853 854 855 855 855 855 856 856 857 858 859 861 862 863 864 865 865 865 865 865 866 865 865 865 865 865 865 865 865 864 864 863 863 862 861 861 860 859 857 856 855 854 852 851 849 848 846 844 842 841 839
770 775 780 785 788 791 794 796 799 803 808 811 815 817 819 822 824 827 829 832 834 836 838 840 841 842 843 844 845 846 847 849 850 852 854 855 855 856 856 855 856 856 857 858 860 861 862 863 864 865 865 865 866 866 866 866 865 865 865 865 865 865 865 864 864 864 864 863 862 861 860 859 858 857 856 854 853 852 851 849 848 846 845 843 841
772 776 780 783 787 791 794 797 800 803 806 809 813 817 819 821 823 826 828 830 833 835 837 839 841 842 843 844 845 846 848 849 851 852 853 855 855 856 856 856 856 857 857 859 860 861 862 863 864 864 865 865 866 866 866 866 866 866 865 865 865 865 865 865 864 864 864 864 863 862 861 860 859 858 856 855 854 853 852 850 849 848 846 845 843
772 775 778 782 786 790 794 797 800 802 804 807 811 814 818 821 823 825 827 829 831 834 836 838 840 841 843 844 845 846 848 849 851 852 853 854 855 856 856 856 856 857 858 859 860 861 862 863 864 865 865 865 865 866 866 866 866 866 865 865 865 865 865 865 865 864 864 864 863 862 862 861 860 859 857 856 855 854 853 851 850 849 847 846 844
774 777 779 781 785 789 793 797 800 802 804 808 811 814 818 820 822 825 826 828 830 832 834 837 839 840 841 843 844 846 847 849 850 852 852 854 855 855 856 856 857 858 858 859 860 861 862 863 864 864 865 865 865 865 865 865 866 866 866 865 866 866 866 865 865 864 864 864 863 863 862 861 860 860 858 857 856 855 854 852 851 850 848 847 845
775 778 780 782 785 789 793 797 799 801 805 808 811 815 818 819 821 824 826 827 828 831 833 835 837 838 840 841 843 845 846 848 850 851 852 853 854 855 856 856 857 858 859 860 861 861 863 863 864 864 865 865 865 865 865 866 866 866 866 866 866 866 866 866 865 864 864 864 864 863 862 862 861 860 859 858 857 856 855 854 852 851 849 848 846
776 778 780 782 785 789 792 795 798 802 805 807 809 812 816 818 820 822 824 826 827 829 831 834 835 837 838 839 841 843 845 847 848 850 851 852 853 854 855 856 857 858 859 860 861 861 862 863 864 864 865 865 865 866 866 866 866 866 866 866 866 867 866 866 865 865 864 864 864 863 863 862 861 860 859 859 858 857 856 854 853 851 850 848 847
775 777 780 783 786 788 791 794 798 802 806 807 808 811 814 816 818 820 822 824 826 828 830 831 833 835 836 837 839 841 843 845 847 848 850 851 852 854 854 855 856 857 858 859 860 861 862 863 864 864 865 865 866 866 866 866 866 866 866 866 866 867 867 866 865 865 865 865 864 864 863 862 861 861 860 859 858 857 856 855 853 852 850 849 847
774 777 780 783 786 788 790 793 797 801 805 807 809 810 813 815 816 817 819 821 823 825 827 829 830 832 833 835 837 839 841 842 844 846 848 849 851 852 853 854 856 857 858 859 860 861 862 862 863 864 864 865 865 866 866 866 866 866 866 866 866 867 867 866 866 865 865 865 864 864 863 863 862 861 860 859 858 857 856 855 853 852 851 849 848
774 778 780 782 785 788 790 792 795 799 803 806 809 811 812 813 814 815 817 818 820 822 824 826 827 829 831 832 834 836 837 839 841 844 846 848 850 851 852 853 855 856 858 859 859 860 861 862 862 863 864 865 865 865 866 866 866 866 866 866 866 867 867 866 866 865 865 865 864 864 864 863 862 861 860 859 858 857 856 855 854 852 851 850 848
775 778 780 782 785 787 790 794 796 799 802 804 808 811 812 813 814 815 817 819 820 822 823 824 825 827 829 831 832 834 835 837 840 843 846 847 849 850 851 853 854 856 857 858 859 860 860 861 862 862 863 864 864 865 865 865 865 865 865 865 866 866 866 866 866 865 865 865 864 864 864 863 862 861 860 859 858 857 856 855 854 852 851 850 848
774 778 780 782 785 787 791 794 797 800 802 804 807 810 812 813 815 816 817 819 820 822 823 824 825 826 828 830 832 834 836 838 840 842 844 846 848 849 851 852 854 855 856 857 858 859 860 860 861 861 862 863 863 864 864 864 864 865 865 865 865 865 866 866 865 865 865 864 864 864 863 863 862 861 860 859 858 857 856 855 854 853 851 850 848
774 777 780 782 785 787 790 793 796 799 801 804 806 808 810 811 814 815 817 819 820 822 823 824 825 826 828 829 831 833 835 837 839 841 843 845 846 848 850 852 853 854 855 856 857 858 859 859 860 860 861 862 862 863 863 863 863 864 864 864 864 864 865 865 865 865 864 864 863 863 863 862 862 861 860 859 858 857 856 855 854 853 851 850 849
773 776 778 780 783 786 788 791 794 797 799 801 803 806 808 809 811 813 815 817 819 821 822 823 824 825 827 829 831 832 834 836 838 839 841 843 845 847 849 851 852 853 854 855 856 857 858 858 859 859 860 860 861 862 862 862 862 862 862 863 863 863 863 864 864 864 864 863 863 862 862 861 861 860 860 859 858 857 856 855 854 853 852 850 849
773 775 777 779 781 784 786 789 792 795 797 799 800 802 805 807 808 810 813 815 817 819 820 821 823 824 826 828 830 832 834 836 837 839 840 842 844 846 848 849 851 852 853 854 855 856 856 857 858 858 859 859 860 860 860 861 861 861 861 861 861 862 862 862 863 863 863 863 862 862 861 860 860 859 859 858 857 857 856 855 854 853 852 850 849
772 774 776 778 780 782 785 787 790 793 795 797 799 800 803 805 806 808 810 812 814 816 818 819 821 823 825 827 829 831 833 835 837 838 840 841 843 845 846 848 849 850 851 852 853 854 855 856 856 857 858 858 859 859 859 859 860 860 860 860 860 860 861 861 861 861 861 861 861 861 860 859 859 858 858 857 857 856 855 854 853 852 851 850 849
772 774 776 778 780 781 783 786 789 791 793 795 797 799 801 803 805 807 809 811 812 814 816 818 820 822 824 826 828 830 832 834 836 837 839 840 842 843 845 846 847 848 850 851 852 853 854 854 855 856 856 857 857 857 858 858 858 858 859 859 859 859 859 859 860 860 860 860 860 859 859 858 857 857 856 856 856 855 854 854 853 852 851 850 849
771 773 775 777 779 781 783 786 788 790 793 794 796 798 800 803 805 807 809 810 812 813 815 817 818 820 822 824 826 829 830 832 834 836 838 839 841 842 843 844 846 847 848 850 851 852 852 853 853 854 855 855 856 856 856 856 857 857 857 857 858 858 858 858 858 858 858 858 858 858 857 857 856 856 855 854 854 854 853 853 852 851 850 850 848
769 771 773 775 777 780 782 785 787 790 792 794 796 798 800 802 805 807 808 810 811 813 814 815 816 818 820 822 824 827 829 831 832 834 836 838 839 841 843 844 845 846 847 848 849 850 850 851 852 852 853 854 854 854 855 855 855 855 855 856 856 856 856 856 856 856 856 856 856 856 855 855 854 854 853 853 852 852 852 851 851 850 849 849 848
768 770 772 774 776 778 781 783 785 788 790 793 795 798 800 802 804 806 807 809 810 812 813 813 815 816 818 820 822 824 826 828 830 831 833 835 837 839 841 842 843 844 845 846 848 848 849 849 850 850 851 852 852 853 853 853 853 854 854 854 854 854 854 854 854 854 854 854 853 853 853 853 852 852 851 851 850 850 850 850 849 849 848 847 847
767 769 771 773 775 777 780 782 784 786 788 790 793 796 798 801 803 804 805 807 808 810 811 812 813 814 816 818 819 821 823 824 826 828 830 832 833 835 837 838 840 841 842 844 845 846 847 848 848 849 849 850 850 851 851 851 852 852 852 852 852 852 852 852 852 852 852 851 851 851 851 850 850 850 849 849 848 848 848 847 847 847 846 846 845
766 768 770 773 775 777 778 781 783 784 786 789 791 794 796 798 800 801 803 805 806 808 809 810 812 813 815 816 817 819 820 821 823 825 827 828 830 832 833 834 836 838 839 841 843 844 845 846 846 847 847 848 848 849 849 849 850 850 850 850 850 850 850 850 850 850 850 849 849 848 848 848 848 847 847 846 846 846 845 845 845 845 844 844 843
765 767 769 772 774 776 778 780 781 783 785 788 790 792 795 797 800 801 802 804 805 806 808 809 810 811 813 814 815 817 819 820 822 824 825 826 828 829 830 832 833 835 837 839 840 842 844 844 845 845 845 846 846 846 847 847 847 847 847 848 847 847 848 847 847 847 847 847 846 846 846 845 845 845 844 844 844 843 843 842 842 842 842 841 841
764 766 768 770 773 775 776 778 780 782 784 786 789 791 793 797 800 802 803 803 805 805 806 807 808 809 810 812 814 816 818 819 821 823 824 825 826 827 828 830 832 833 835 837 839 841 842 842 843 843 843 843 844 844 844 844 845 845 845 845 845 845 845 845 845 845 844 844 844 843 843 843 842 842 842 842 841 841 840 840 839 839 839 838 838
764 766 768 770 772 774 776 778 780 781 782 784 787 790 792 795 798 800 802 803 803 804 805 806 807 808 809 810 811 813 815 818 820 821 823 824 825 826 827 829 830 832 833 835 837 839 839 840 841 841 841 841 841 842 842 842 842 842 842 842 842 842 842 842 842 842 841 841 841 841 840 840 839 839 839 839 838 838 837 837 836 836 836 835 835
763 765 767 769 771 774 776 777 779 781 782 784 787 789 791 793 795 798 800 801 801 803 804 806 807 808 809 809 810 811 813 816 818 820 821 822 823 825 826 827 829 830 831 833 835 836 837 838 839 839 839 839 839 839 839 839 839 840 840 840 839 839 839 839 839 839 838 838 838 837 837 837 836 836 835 835 835 835 834 834 833 833 832 832 831
763 764 766 768 770 773 775 777 779 780 782 784 786 788 790 792 794 796 798 799 800 802 803 805 806 807 808 809 810 811 813 815 817 818 820 821 822 823 825 826 827 828 829 831 832 834 835 835 836 836 837 837 837 837 837 837 837 837 837 837 836 836 836 836 836 835 835 835 834 834 834 833 833 832 832 831 831 831 831 830 830 829 829 828 827
762 764 766 768 770 772 774 776 778 780 782 784 786 788 790 791 793 796 798 799 800 801 802 803 805 806 807 808 809 810 812 814 815 816 818 819 820 822 823 824 825 826 827 828 830 831 832 833 833 834 834 834 834 834 834 834 834 834 834 833 833 833 833 833 832 832 831 831 831 830 830 830 829 829 828 828 828 827 827 827 826 825 825 824 823
762 764 766 768 770 772 774 776 778 780 783 784 786 788 790 791 794 796 798 799 800 800 801 802 803 804 805 807 808 810 812 813 814 814 815 816 818 820 821 822 823 824 825 826 827 828 829 830 830 831 831 832 832 832 831 831 831 830 830 830 830 829 829 829 829 828 828 827 827 826 826 826 825 825 825 824 824 823 823 822 822 821 821 820 819
762 764 766 768 770 771 773 776 778 780 782 784 787 788 789 791 794 796 797 799 799 800 800 801 802 803 805 806 808 810 811 812 812 813 813 814 816 818 819 820 822 822 823 824 825 826 826 827 827 828 828 828 829 828 828 828 827 827 827 826 826 826 825 825 824 824 824 823 823 823 822 822 822 821 821 820 820 819 818 818 817 816 816 815 814
763 765 767 769 771 773 774 776 778 780 782 784 786 788 789 791 794 796 797 798 799 800 800 801 801 803 804 806 807 808 810 810 811 811 812 813 814 816 817 818 819 820 821 822 823 823 824 824 825 825 825 825 825 825 824 824 823 823 823 822 822 822 821 821 820 820 819 818 818 818 817 817 817 816 816 816 815 814 813 813 812 811 811 810 809
764 766 768 770 772 774 775 777 779 781 782 784 786 788 790 792 794 796 797 798 799 800 800 801 801 802 803 805 806 807 808 809 810 811 811 813 814 815 816 816 817 818 818 819 820 821 821 821 821 822 822 821 821 821 820 820 820 819 819 818 818 817 817 816 815 815 814 813 813 812 812 811 811 811 810 810 810 809 808 807 807 806 805 805 804